GFSNW_sfc_thetae_009.txt.gz
Theta_e
310 310 309 308 307 306 306 306 300 314 316 301 301 296 300 301 303 305 304 304 302 300 301 300 301 302 306 311 311 305 308 303 298 302 309 311 306 302 300 293 293 297 297 302
310 310 309 308 307 306 301 300 305 315 313 297 297 300 301 303 302 303 303 302 304 303 299 297 304 306 312 312 312 306 313 300 294 298 302 307 303 305 303 301 301 294 294 300
310 309 309 308 307 306 302 302 301 306 310 307 302 300 300 300 305 303 305 303 304 301 299 301 301 303 310 312 315 326 315 305 298 294 299 305 304 306 305 300 295 295 297 305
310 309 308 308 307 306 304 305 304 306 300 302 304 304 301 300 301 306 305 302 303 300 296 298 300 304 305 309 316 309 308 302 304 306 309 306 305 307 308 303 301 299 301 306
308 308 308 308 307 305 306 302 301 303 301 305 304 303 304 302 302 304 304 301 303 302 298 302 300 303 302 304 310 308 307 302 307 305 310 310 307 309 311 309 308 303 308 307
306 306 307 307 306 304 303 306 307 303 300 301 299 301 303 304 306 304 307 307 303 301 303 309 308 307 307 308 310 311 308 304 305 298 308 308 301 307 311 312 312 306 303 309
305 305 306 307 306 305 300 303 304 300 296 299 299 303 306 305 308 307 309 308 306 310 316 315 313 309 308 311 311 313 310 311 304 300 304 295 306 314 314 312 313 316 314 313
305 305 306 307 306 306 301 304 303 300 295 299 300 303 303 307 310 309 310 311 315 314 312 305 303 302 303 307 310 310 315 309 303 299 298 304 308 313 310 309 310 317 313 315
304 305 305 305 306 305 302 303 309 302 297 297 301 300 305 303 303 307 311 316 317 312 306 303 297 296 301 301 304 308 309 310 305 302 297 295 305 315 318 315 304 320 318 317
305 304 305 305 305 305 302 301 309 303 296 301 301 301 300 303 306 303 307 308 311 311 302 298 297 297 303 299 299 299 301 304 302 301 299 304 315 319 319 303 307 324 320 318
303 304 304 305 304 304 302 299 306 303 297 298 301 303 301 303 308 302 306 307 307 309 300 298 299 298 301 303 307 302 301 298 297 300 297 295 325 319 311 320 324 328 328 326
303 303 303 303 303 304 303 298 304 305 299 298 304 304 305 305 305 303 309 305 305 310 306 305 304 301 306 305 302 313 304 309 305 306 306 318 318 321 327 329 326 326 325 325
303 303 303 303 303 303 302 298 301 301 298 299 300 301 307 309 308 309 304 309 311 311 313 307 306 305 305 301 303 307 309 315 309 308 314 313 318 319 323 324 328 327 327 326
302 303 303 303 303 303 302 298 302 301 298 294 301 311 310 312 310 309 311 310 310 311 312 307 303 302 307 303 307 303 309 313 309 309 315 313 318 321 324 326 328 327 326 325
303 303 303 303 303 303 302 302 304 306 298 292 295 302 307 309 312 311 312 309 309 306 305 302 303 307 306 306 305 303 309 308 307 304 316 311 317 321 323 323 321 324 323 321
303 303 303 304 304 303 300 300 307 309 304 296 292 304 307 312 311 309 309 309 309 308 304 303 306 313 306 300 298 310 313 316 317 312 315 321 321 323 325 321 322 324 322 321
303 304 304 305 305 301 299 299 304 305 307 297 293 298 309 311 311 308 307 308 306 306 304 303 304 305 307 302 297 307 309 314 316 317 314 315 318 313 322 323 323 322 322 320
303 304 304 305 306 303 300 307 307 305 302 300 293 298 303 311 305 304 309 304 306 306 304 305 302 304 306 298 304 306 312 313 314 314 318 317 317 321 323 321 322 319 317 317
303 303 305 305 303 303 306 309 308 310 303 295 297 295 296 308 305 308 308 309 301 306 301 301 303 301 299 303 305 308 310 308 311 314 318 318 315 318 319 319 318 316 316 317
304 301 301 300 309 311 310 304 301 301 301 300 295 301 297 303 302 304 304 305 301 297 300 303 298 297 304 308 310 311 311 312 314 310 312 313 312 314 316 318 319 317 316 318
303 299 298 303 311 305 302 298 296 298 296 300 300 301 300 307 300 300 305 301 302 295 298 298 297 296 302 307 309 311 314 314 314 315 314 317 315 312 313 318 319 318 318 318
296 296 299 302 302 300 296 296 299 297 296 303 300 304 306 306 309 302 304 300 301 294 304 300 295 301 307 308 309 311 314 314 313 316 314 317 321 319 318 319 318 318 318 320
302 298 297 298 299 288 291 290 294 297 304 306 305 303 305 308 306 301 301 297 296 305 299 296 301 308 310 310 314 312 314 314 313 315 314 314 321 322 321 319 318 318 316 317
297 295 285 290 290 292 295 296 297 303 303 301 302 301 304 306 302 303 296 301 302 296 294 296 303 307 310 311 313 316 311 312 311 311 312 312 320 320 320 319 319 316 313 315
295 295 286 292 297 300 299 301 301 304 304 302 301 302 305 302 300 302 300 296 294 294 293 301 306 309 308 312 314 309 313 314 311 314 317 318 319 317 317 317 315 314 310 307
296 295 292 298 297 297 299 300 300 305 304 304 306 299 295 295 298 296 295 295 292 294 301 305 308 309 310 311 314 309 314 318 318 317 316 315 313 312 310 311 311 312 311 312
294 294 299 297 299 298 299 301 302 307 303 299 299 292 292 298 294 296 300 296 299 302 304 308 310 310 311 314 315 315 315 314 314 313 312 311 311 310 308 307 308 309 310 310

GFSNW_sfc_thetae_015.txt.gz
Theta_e
308 309 308 307 307 305 299 291 293 303 302 291 290 290 295 298 296 298 296 296 295 294 295 293 293 295 299 304 304 300 300 294 293 296 303 305 300 297 294 291 288 289 289 292
308 308 308 307 306 305 299 289 292 304 301 288 287 292 297 297 295 296 295 295 298 297 293 290 295 299 304 303 302 299 299 293 292 293 297 300 299 298 294 292 290 289 289 291
307 307 308 307 306 306 296 293 293 297 298 294 292 293 296 297 304 299 299 297 297 295 292 293 292 295 301 303 304 322 308 293 293 293 294 298 298 301 299 294 290 290 291 293
306 307 308 307 306 306 297 295 292 294 290 293 293 294 297 298 298 301 298 295 296 295 289 292 292 295 297 302 311 307 300 294 296 299 299 302 303 304 301 297 296 294 296 297
305 307 307 307 306 304 296 293 292 293 291 293 291 293 295 299 300 300 299 300 304 302 291 293 292 293 292 296 303 304 304 296 301 297 304 305 304 306 307 306 302 300 300 299
305 305 305 306 305 300 292 293 295 294 292 291 290 291 297 300 302 304 306 305 303 299 300 306 305 297 299 299 301 301 306 297 295 293 301 302 295 302 304 306 306 305 300 303
305 305 304 305 305 302 292 292 292 291 288 291 292 296 298 299 302 299 305 306 302 306 310 307 303 302 299 300 300 304 303 302 296 294 296 289 299 307 309 307 311 311 309 311
304 304 304 304 305 305 293 292 292 290 286 292 293 295 295 298 298 300 304 308 309 308 304 298 295 295 294 298 302 300 305 301 297 294 292 297 303 306 306 303 303 312 310 313
303 304 304 304 304 304 294 292 294 292 288 287 295 292 294 292 291 297 303 308 307 306 296 296 290 289 292 293 296 301 303 302 300 296 293 291 299 315 320 314 299 317 313 313
303 303 303 303 304 304 295 292 292 293 288 291 292 290 290 293 294 294 298 301 303 306 294 291 291 291 297 294 293 291 292 294 293 295 295 299 312 316 319 298 300 319 314 317
302 302 302 303 303 303 296 292 293 292 287 290 295 297 293 294 295 293 296 298 300 300 296 293 291 291 294 293 298 295 293 292 292 294 293 293 314 316 306 311 321 319 317 317
303 303 303 303 303 303 299 289 294 294 289 290 295 298 300 298 298 293 295 296 296 302 295 294 295 296 297 295 294 302 297 299 295 296 297 310 313 310 318 323 321 320 317 318
304 303 303 303 303 303 300 290 290 290 288 290 290 293 299 298 299 301 292 299 302 301 303 300 296 293 296 294 297 298 303 306 302 302 307 312 315 317 317 318 320 320 319 317
303 303 303 304 304 304 303 294 291 290 289 288 290 300 296 301 299 300 300 302 303 303 303 298 296 293 297 295 298 298 302 304 302 303 307 312 316 319 317 316 317 319 318 317
303 303 303 304 304 304 300 294 293 293 292 287 288 295 298 299 299 299 299 301 299 298 297 297 295 298 299 299 296 297 302 303 301 301 309 307 309 319 323 320 320 319 317 315
303 303 303 303 304 304 293 293 300 300 299 293 285 292 295 299 300 298 297 301 299 299 297 296 302 307 302 295 292 302 307 309 309 308 311 314 315 318 319 318 319 318 316 315
303 303 303 303 304 295 291 293 300 304 299 295 287 287 296 302 302 298 296 298 299 299 298 297 301 303 305 298 292 301 306 308 309 312 313 309 314 313 319 320 321 318 316 314
302 303 304 304 305 303 294 297 302 300 296 298 286 288 293 302 298 298 301 298 296 296 296 297 297 299 297 292 300 303 305 306 312 313 313 311 312 315 316 317 316 313 310 311
303 304 304 299 295 292 296 309 304 298 295 289 291 287 292 300 298 301 304 299 292 296 294 294 297 294 292 299 301 301 305 308 306 308 312 314 313 314 315 315 315 311 309 309
303 298 296 295 296 309 305 297 293 294 296 294 286 289 291 295 294 293 294 296 296 290 294 295 293 291 295 305 306 302 302 304 304 305 304 308 310 314 313 313 313 312 311 310
291 287 290 292 301 296 293 290 291 294 293 292 291 291 290 297 292 292 294 292 296 292 293 293 290 293 299 304 305 307 307 305 304 307 309 313 313 313 313 312 313 313 313 311
291 292 296 292 292 290 291 290 294 293 293 297 296 299 296 297 298 293 294 292 293 289 296 296 291 297 301 304 305 306 308 308 307 306 308 311 313 313 314 313 313 314 314 312
293 290 288 290 289 280 287 288 292 293 299 301 299 295 296 297 298 294 293 291 291 297 291 292 298 302 302 303 305 307 308 309 308 307 309 311 312 313 315 313 314 315 314 313
289 288 276 283 281 286 291 291 291 298 300 296 297 293 292 295 294 298 295 296 295 292 290 291 299 300 302 304 306 306 307 308 309 307 308 310 311 311 314 315 314 314 313 313
288 289 279 285 290 292 293 294 292 295 295 293 292 293 294 292 293 295 294 294 291 290 291 297 301 303 303 303 305 307 309 308 306 305 310 312 312 311 311 313 315 315 315 313
290 289 286 289 290 291 292 291 293 297 294 295 294 289 290 293 294 293 292 293 290 293 299 301 300 299 300 303 306 310 310 308 306 309 312 311 309 308 307 310 311 310 311 309
290 288 289 288 288 291 292 294 297 299 298 294 292 287 291 293 290 290 297 293 295 298 298 298 297 300 302 305 309 308 308 307 309 309 310 309 310 310 310 308 310 310 309 310

GFSNW_sfc_thetae_021.txt.gz
Theta_e
306 307 307 307 306 305 302 298 300 308 307 298 297 297 298 299 300 301 300 300 299 298 298 298 299 300 303 306 308 305 309 306 301 302 307 309 307 306 307 302 301 301 301 302
307 307 307 306 305 305 301 300 301 309 306 293 296 297 298 300 299 300 299 299 300 300 299 298 298 300 305 305 307 307 308 304 299 300 304 306 306 306 306 305 306 303 300 302
306 306 307 306 305 305 303 303 299 304 304 300 297 298 298 298 305 302 302 301 303 300 299 300 299 300 303 305 312 319 313 305 304 298 302 306 304 303 304 307 303 303 303 307
306 306 306 306 306 305 303 301 298 298 297 299 299 300 301 301 301 306 307 304 306 304 300 298 298 300 302 305 315 311 312 307 304 305 304 303 305 307 304 305 308 304 307 307
305 305 305 306 305 303 302 300 299 300 298 296 298 298 300 300 302 304 304 303 305 306 302 299 300 304 304 303 309 312 311 307 307 305 307 305 305 306 307 307 307 307 307 309
304 304 305 306 305 302 300 299 300 299 294 297 297 299 300 301 304 305 308 304 306 305 305 307 309 310 310 309 306 307 312 311 307 302 307 307 303 309 310 311 312 311 309 315
304 304 304 304 305 300 299 298 298 298 293 297 297 298 299 301 302 301 304 306 306 309 313 313 310 308 308 308 309 308 311 311 308 303 306 297 307 313 313 312 315 316 318 318
304 303 304 304 305 303 300 298 299 298 293 296 296 297 298 300 302 301 303 306 310 313 311 305 304 304 304 305 305 306 311 313 307 302 302 304 308 316 316 313 313 323 319 318
303 303 303 304 304 303 300 298 298 299 295 293 296 296 297 299 299 300 303 309 311 313 307 303 299 296 300 300 303 309 310 312 309 305 299 296 308 317 322 321 308 322 322 320
303 303 304 304 303 303 299 298 298 299 295 297 298 297 297 299 299 300 302 303 307 310 305 300 299 298 302 297 299 302 304 306 302 305 304 307 313 319 322 307 309 324 322 323
303 303 304 303 303 303 300 298 298 297 295 296 298 299 298 298 300 299 301 301 305 306 301 302 301 299 303 303 305 303 303 301 300 303 301 299 318 320 313 320 326 323 322 323
303 302 303 303 303 303 300 296 299 298 295 295 298 300 302 301 302 302 300 302 303 308 303 304 304 303 305 304 302 312 303 307 304 306 304 316 320 321 322 323 323 321 319 321
302 302 303 302 303 303 302 298 298 297 295 295 295 298 302 302 302 305 297 303 307 308 311 307 306 301 304 304 306 307 311 315 314 312 315 317 320 323 324 324 324 324 322 320
302 302 303 303 303 303 303 298 298 297 294 291 297 302 301 304 303 302 302 304 310 311 311 307 305 301 304 304 304 305 311 314 311 313 317 319 321 323 324 324 324 323 323 323
302 302 303 303 303 303 302 302 301 300 296 291 294 300 302 303 303 302 302 300 301 305 304 305 303 307 305 307 305 304 311 311 312 312 317 319 318 323 325 323 324 324 322 321
303 303 303 303 303 303 301 298 301 301 299 294 292 300 300 303 304 302 300 300 300 302 304 304 308 308 308 303 302 306 312 312 314 315 319 321 324 326 327 325 325 324 323 323
302 303 303 303 303 301 298 298 302 302 302 296 293 295 302 303 303 302 301 302 303 303 302 302 304 308 308 304 301 307 310 311 312 318 321 318 321 321 325 325 324 321 322 322
303 302 303 304 304 303 301 305 304 304 300 299 292 295 300 306 306 304 304 301 302 303 304 305 304 306 307 298 305 308 311 312 313 314 319 320 320 322 323 324 322 321 320 319
302 302 304 304 302 301 301 306 307 304 300 295 293 293 296 304 304 306 307 306 299 303 300 302 303 300 297 302 306 308 310 309 311 312 316 319 319 319 322 322 320 320 319 319
300 301 300 299 302 303 306 303 298 298 300 297 293 296 296 300 303 302 302 304 303 298 301 303 299 298 305 306 308 309 310 310 312 311 312 315 316 319 321 322 323 322 320 319
296 294 297 298 301 303 299 295 294 296 292 297 298 297 296 304 300 300 302 301 302 296 300 298 297 298 303 307 308 309 310 311 311 313 314 315 313 313 319 322 322 322 320 319
296 296 298 298 299 297 293 292 295 294 293 300 299 302 300 303 304 302 302 299 300 293 304 298 294 302 305 306 306 308 309 310 311 314 314 315 315 314 317 323 323 323 322 320
298 295 294 295 294 288 288 288 292 293 300 302 303 299 303 304 305 302 300 295 295 303 298 296 300 304 305 305 306 308 310 311 312 313 315 316 316 316 318 321 324 324 321 320
294 292 285 290 288 290 292 295 296 299 301 300 299 300 300 303 301 302 295 300 300 294 292 293 300 303 304 305 307 307 309 310 311 312 314 315 317 315 319 321 323 323 321 320
293 293 285 289 294 294 295 297 297 300 302 301 301 300 302 301 298 301 299 295 292 290 289 295 302 303 305 306 307 307 307 310 310 311 314 314 315 319 319 322 322 320 319 319
293 292 291 294 292 292 296 297 298 303 302 301 302 298 295 294 295 293 293 292 289 292 297 302 302 302 302 303 305 307 309 310 309 311 315 316 316 315 315 317 318 317 317 317
292 292 295 293 293 293 296 301 301 303 302 297 298 292 291 298 293 292 298 293 295 300 300 302 301 301 302 305 307 308 309 310 311 310 311 311 313 313 312 310 313 315 317 318

GFSNW_sfc_thetae_024.txt.gz
Theta_e
307 307 307 307 306 305 308 311 304 313 316 301 304 301 303 301 304 305 304 304 303 304 303 304 305 305 307 310 313 308 313 309 304 306 312 313 312 311 312 305 306 307 306 305
306 307 307 306 305 305 310 310 308 315 313 298 299 303 302 303 302 303 302 301 303 305 304 303 304 305 309 308 311 312 314 308 303 305 308 311 308 311 313 313 314 307 304 307
307 307 307 307 306 305 308 311 302 307 309 310 303 301 301 300 306 304 304 304 305 303 302 306 304 305 307 308 314 318 317 312 308 302 306 310 307 308 311 312 307 307 308 309
305 306 307 306 306 305 309 311 306 306 300 304 304 304 302 300 302 306 307 304 304 303 301 303 304 305 306 308 312 315 315 310 311 310 310 308 308 308 309 309 311 307 310 310
305 305 306 306 305 304 310 306 307 308 307 305 305 302 302 301 303 305 304 304 306 307 304 304 303 308 308 308 312 313 317 311 311 308 310 310 307 309 310 311 311 311 312 312
305 305 305 306 305 305 308 309 310 306 299 304 303 304 305 304 307 308 310 308 308 306 308 311 312 314 315 315 312 310 314 311 310 304 309 309 305 309 310 311 313 313 309 316
304 304 305 305 305 303 307 306 306 303 301 303 304 303 305 305 306 306 310 310 308 313 316 315 316 315 314 315 315 316 313 316 311 304 308 299 309 317 315 314 316 318 319 322
304 304 304 305 306 304 307 307 306 304 299 303 303 303 304 306 308 306 307 309 314 316 313 307 305 305 307 308 312 314 314 315 306 303 302 306 308 315 314 313 312 322 323 324
303 305 305 304 305 303 307 306 307 305 300 298 302 302 303 303 304 305 306 312 315 315 309 306 301 297 301 301 304 312 312 316 311 306 300 298 309 323 326 325 310 326 326 325
304 304 304 304 304 304 304 306 306 305 299 302 302 301 301 306 304 303 306 308 309 314 306 302 301 300 306 301 301 304 305 307 303 303 302 306 319 322 326 310 313 330 329 330
303 303 304 304 304 304 303 304 306 302 300 301 302 304 303 303 304 301 307 304 306 306 303 303 304 303 307 305 307 306 304 303 302 304 301 299 323 323 316 326 333 331 330 331
303 303 303 303 303 304 304 302 306 304 299 300 304 304 306 305 306 306 307 306 309 310 306 308 309 306 309 307 302 316 305 310 306 306 306 324 325 328 331 330 329 332 329 330
303 302 303 303 303 303 304 303 305 304 301 302 303 304 308 308 306 309 304 309 313 314 315 312 310 306 311 304 305 312 316 320 311 313 317 321 325 328 331 331 330 329 328 329
303 302 303 303 303 303 303 302 307 304 302 297 303 308 307 310 309 307 307 308 317 315 314 311 309 306 311 310 311 311 316 320 316 315 321 323 325 326 329 330 329 328 327 327
303 302 303 303 303 304 304 306 308 307 301 298 303 308 308 309 309 307 306 305 306 307 307 308 307 312 311 313 312 310 318 316 313 312 322 324 326 329 330 329 330 328 327 327
302 303 303 303 303 303 305 303 308 309 307 301 300 307 307 310 311 310 308 307 305 305 307 309 311 311 310 307 306 313 316 315 317 318 323 326 328 330 331 330 330 330 330 330
302 303 303 303 303 303 303 302 305 305 309 302 300 303 309 311 309 309 308 308 307 306 306 305 307 308 308 306 304 313 313 315 317 319 325 323 324 324 328 328 330 326 330 329
302 303 303 305 304 303 304 309 305 307 304 304 299 303 305 311 309 306 310 306 307 307 306 309 305 308 307 301 307 311 313 316 316 318 319 323 324 325 327 329 328 327 326 327
303 302 304 308 306 305 306 306 308 309 304 298 302 300 297 310 310 313 312 309 302 310 303 304 305 302 300 304 308 310 312 313 315 318 318 320 320 321 324 326 326 325 326 327
301 303 303 300 307 303 308 307 302 302 301 302 300 306 301 306 308 306 306 309 304 302 304 310 303 301 307 310 311 313 314 315 316 314 313 318 317 318 321 324 326 327 326 326
303 302 301 306 303 307 304 298 297 299 296 303 305 305 303 311 303 304 309 304 307 298 303 302 301 300 306 311 311 313 315 316 317 317 318 319 319 318 316 321 325 326 325 325
301 302 303 306 304 302 295 295 299 297 296 303 304 306 308 309 313 306 307 302 304 295 307 302 298 306 310 310 310 312 314 314 315 317 317 316 317 320 319 319 324 326 327 327
304 301 299 300 299 290 291 290 294 295 303 305 307 304 308 309 310 306 304 298 298 308 300 299 303 307 308 310 311 311 314 315 315 316 318 318 318 321 321 319 324 327 328 327
299 294 287 293 292 295 298 298 297 299 306 305 303 304 305 308 304 306 297 303 304 296 294 295 300 304 307 310 312 312 312 314 314 315 317 318 319 321 322 320 325 327 327 327
297 297 288 293 300 303 303 303 304 307 309 305 304 304 304 304 301 304 301 296 293 295 294 297 305 307 306 309 309 309 310 313 312 313 315 318 320 322 321 324 326 328 327 324
299 297 295 300 298 297 302 302 304 309 309 309 306 301 297 296 300 296 295 294 293 294 299 304 307 303 302 303 305 309 310 311 312 313 316 320 321 322 323 324 324 324 323 323
296 296 301 300 301 301 305 307 306 309 304 302 301 293 293 301 296 293 302 297 301 302 302 304 307 303 304 307 308 310 310 311 312 313 315 315 317 318 317 316 318 319 321 322

GFSNW_sfc_thetae_027.txt.gz
Theta_e
308 308 308 307 306 305 310 313 304 316 316 303 305 302 307 304 307 308 307 306 308 306 307 307 308 308 311 314 314 310 315 312 307 309 313 315 315 313 312 306 306 308 307 306
308 308 307 307 306 305 311 312 310 317 314 300 302 306 306 307 307 306 306 305 306 309 307 306 307 309 313 312 313 312 314 309 305 306 311 313 310 312 313 314 314 309 305 307
307 307 307 307 306 306 309 313 304 309 309 309 307 305 304 304 307 306 307 306 307 307 306 310 308 308 310 311 313 323 319 312 309 304 306 312 308 309 311 312 307 308 307 310
306 307 307 307 306 306 311 312 310 311 302 305 306 307 305 303 303 307 309 306 306 305 304 306 306 310 310 310 312 315 316 310 312 311 311 311 310 309 310 309 310 308 310 310
306 307 307 307 306 304 312 307 308 312 308 308 307 302 305 302 305 307 305 305 307 307 305 306 305 309 310 310 313 314 317 311 313 310 311 310 308 309 309 311 311 312 313 312
305 306 307 307 305 305 311 311 313 310 305 305 305 306 305 305 306 309 311 309 308 307 310 313 316 316 317 318 316 314 315 313 311 306 309 309 305 309 310 311 313 313 310 318
305 306 306 307 305 304 310 310 309 305 302 305 304 305 307 306 309 308 310 312 310 316 319 317 316 313 313 315 316 318 316 316 313 307 309 300 311 316 315 313 315 316 316 320
304 306 306 306 306 305 309 311 309 307 302 305 306 306 306 309 310 309 309 312 317 318 314 308 306 306 307 308 311 314 316 313 308 303 304 307 310 314 314 311 311 317 317 321
305 306 305 305 306 305 307 311 311 308 303 303 305 305 307 306 307 308 309 314 318 315 309 307 301 299 303 303 305 312 314 315 309 307 302 299 310 318 323 320 308 318 324 322
305 305 305 305 305 305 305 309 311 307 302 307 305 303 305 308 308 307 310 310 310 314 306 302 302 301 308 302 303 304 305 308 302 303 303 306 315 323 324 308 316 332 332 333
305 304 304 305 305 305 305 307 310 305 303 305 304 306 306 307 307 304 311 308 309 309 304 303 303 303 306 305 309 308 307 304 302 304 301 299 320 320 314 328 336 334 334 334
305 303 303 305 305 304 305 306 312 310 301 303 307 307 309 308 309 308 312 309 312 311 305 306 308 306 308 308 302 313 307 310 307 308 307 327 328 333 335 335 335 336 335 334
304 304 303 304 304 304 304 306 309 308 304 305 305 306 310 310 308 312 305 309 316 315 319 314 311 308 313 306 307 310 315 317 314 314 317 322 327 331 333 335 336 336 335 334
303 303 303 303 304 304 304 306 310 308 305 300 306 313 310 314 313 308 310 312 319 319 315 310 310 307 313 309 312 313 316 319 314 314 321 323 326 331 332 334 334 334 334 334
302 303 304 304 304 304 306 309 311 313 305 302 305 310 312 314 312 309 309 310 312 310 308 307 306 311 311 313 311 310 316 317 312 312 324 326 328 332 333 331 333 332 332 332
303 303 303 304 304 305 307 306 312 316 312 304 302 312 311 314 313 310 309 309 309 308 307 307 309 316 313 306 306 313 319 320 321 320 326 328 330 331 332 332 332 333 333 333
303 303 303 304 303 305 304 303 306 307 312 305 303 303 311 314 314 313 311 313 310 308 307 306 307 309 310 307 304 314 316 319 321 322 325 325 326 327 330 330 331 328 333 333
303 303 304 304 306 304 305 312 306 307 307 307 302 302 306 314 306 306 312 308 309 309 306 308 306 309 309 302 308 312 315 317 319 321 322 324 327 327 328 328 328 327 329 329
303 303 303 307 307 304 306 307 309 312 306 302 304 299 299 312 307 310 309 309 302 309 304 305 306 304 301 306 309 310 314 313 315 319 321 321 322 323 324 325 324 325 326 327
303 302 304 301 306 306 308 309 302 302 304 305 302 310 301 307 308 304 306 307 302 301 303 309 302 302 310 310 312 314 314 315 316 314 315 318 319 320 320 322 324 324 327 326
303 303 302 308 305 308 304 300 299 302 300 304 305 306 302 311 304 307 307 304 305 300 302 302 300 300 307 312 313 315 315 316 317 318 319 320 320 319 319 318 321 325 325 325
301 302 307 311 304 300 296 296 298 299 299 305 303 304 307 307 313 307 307 302 304 296 308 304 298 309 313 314 312 313 316 316 315 317 317 319 320 320 321 320 320 325 327 326
307 303 302 302 301 291 291 292 296 298 304 310 309 305 306 311 312 309 305 299 298 308 300 299 305 308 311 312 310 311 314 315 316 317 318 319 319 320 321 320 321 324 325 328
300 296 287 295 293 296 298 301 302 305 306 306 305 303 304 308 306 305 299 304 303 298 296 298 305 310 309 311 310 309 311 313 315 316 317 318 319 320 321 321 323 321 324 328
298 297 290 293 300 302 302 303 306 308 309 305 305 303 303 300 300 304 303 298 296 298 300 305 307 311 311 309 308 311 310 312 314 316 316 318 320 321 322 323 323 323 327 328
301 300 296 301 299 298 301 302 306 308 309 306 305 300 297 298 298 297 296 295 295 299 306 307 310 310 311 310 306 307 309 311 311 315 316 319 321 322 324 325 326 326 328 326
298 297 302 302 301 300 306 309 310 310 304 299 300 295 295 300 295 295 301 300 304 305 306 308 311 308 307 309 308 311 314 314 314 314 316 320 325 326 325 323 325 326 327 326

GFSNW_sfc_thetae_033.txt.gz
Theta_e
309 308 308 308 307 305 307 309 303 315 313 299 300 295 300 301 303 306 306 306 304 303 304 304 304 303 307 313 312 306 308 303 298 303 310 312 308 303 303 295 293 297 296 298
309 308 308 307 307 306 301 303 310 314 309 293 295 299 300 302 301 303 305 304 305 306 302 302 308 309 310 312 311 306 308 299 295 298 303 307 303 305 302 302 303 298 296 300
308 308 309 308 307 306 303 304 304 306 306 302 299 298 300 301 306 304 308 305 305 303 301 304 305 306 309 310 312 324 314 304 300 294 300 304 303 307 306 302 295 296 298 302
308 308 308 308 307 306 304 309 306 307 300 300 300 300 301 301 301 306 306 304 304 301 297 302 302 306 308 308 315 309 308 300 303 305 307 306 305 308 307 303 301 296 300 307
308 308 308 308 307 305 307 305 302 305 303 306 304 303 300 302 303 305 302 302 305 304 299 302 303 308 308 308 308 301 306 300 302 302 308 307 305 308 308 308 306 306 308 307
307 308 308 308 306 305 306 310 308 305 303 302 301 302 304 303 304 307 307 306 305 305 310 312 311 308 310 309 308 310 307 305 302 298 307 306 301 306 307 308 308 306 299 308
306 306 307 308 307 305 301 306 307 302 298 301 302 304 304 304 306 306 308 310 310 313 315 315 312 308 307 309 307 311 309 309 307 300 304 294 305 311 311 311 312 312 314 316
306 306 306 307 307 306 301 305 306 303 297 302 302 303 305 309 310 309 311 313 313 314 311 305 301 300 301 304 307 305 309 305 300 297 297 303 307 311 308 305 308 320 317 315
305 306 306 306 307 306 303 304 310 303 299 300 304 300 304 303 304 306 310 316 315 312 305 302 296 294 299 298 300 302 303 309 302 298 295 294 305 313 317 314 306 322 319 319
305 306 306 306 306 305 303 303 309 303 298 305 303 299 299 305 304 303 308 309 308 310 302 297 295 295 302 296 297 297 296 298 299 299 296 300 309 317 317 300 305 318 323 322
304 305 306 306 306 306 303 302 308 304 298 299 304 304 301 301 303 299 304 306 306 304 298 297 298 297 300 300 302 303 298 297 295 298 296 294 318 318 313 312 315 329 328 326
305 305 305 305 305 306 305 302 307 311 305 300 306 306 307 304 306 303 304 305 308 310 305 303 303 299 301 301 297 308 300 304 299 300 300 322 329 326 331 320 329 329 327 327
305 305 304 305 305 305 304 300 304 306 304 304 304 304 309 306 305 306 301 308 310 310 315 309 308 304 306 299 303 306 309 316 306 307 315 322 328 329 330 331 330 330 331 329
305 305 304 304 304 305 305 299 304 305 304 298 304 313 312 316 310 308 306 305 312 312 311 306 304 302 309 304 306 305 309 314 312 311 318 322 326 326 328 330 331 330 333 331
305 304 304 304 304 305 304 302 305 308 305 297 300 307 311 312 310 309 309 304 307 307 304 302 299 304 304 305 306 305 313 311 309 308 316 317 317 321 326 329 329 329 329 331
304 304 304 304 304 305 302 304 310 308 310 302 298 311 312 311 311 309 307 305 306 307 303 303 306 308 307 302 301 312 318 317 319 313 322 323 323 319 324 328 331 332 331 330
304 303 304 304 305 302 298 300 305 306 306 303 300 302 311 312 311 307 305 306 305 305 302 301 302 303 307 302 298 311 315 317 317 319 320 320 324 321 327 325 324 327 330 333
303 303 304 304 304 303 300 305 308 308 304 305 299 302 305 313 304 303 307 303 305 305 303 304 302 303 306 299 305 309 314 315 318 316 317 316 319 324 327 322 323 321 320 325
303 303 304 302 303 304 307 312 311 310 306 299 301 298 298 310 307 309 309 309 301 308 301 302 303 300 298 304 305 308 313 312 311 313 315 315 317 320 323 321 320 318 321 324
303 300 300 300 309 313 312 307 304 304 304 304 299 305 302 305 305 305 305 306 302 299 302 305 301 298 305 310 311 312 315 313 312 309 308 311 313 316 317 319 319 320 319 320
298 299 302 311 312 308 304 300 298 300 298 301 301 300 302 308 301 302 307 302 303 297 300 300 299 298 307 313 313 315 314 313 313 313 313 312 311 312 313 317 317 317 322 318
299 297 301 307 304 301 297 296 299 298 297 304 302 302 306 309 312 304 305 300 303 296 307 302 297 304 311 311 311 312 312 313 313 315 314 314 315 314 314 317 318 320 324 325
302 299 300 299 299 289 291 290 294 296 304 308 306 304 307 308 309 306 302 295 297 306 301 298 303 309 312 311 311 310 312 313 313 313 315 314 315 316 315 315 318 318 322 325
298 297 286 293 292 294 295 297 301 305 307 307 307 305 305 307 304 304 299 302 304 298 295 296 305 308 309 311 311 310 310 311 310 311 313 313 313 314 316 317 318 319 320 322
297 298 288 292 298 301 304 303 301 307 310 308 305 306 305 302 301 303 301 298 295 297 297 303 307 310 310 311 311 309 309 308 309 310 311 311 313 313 314 317 318 317 319 321
300 299 296 300 299 299 302 304 304 309 309 309 308 303 300 299 300 298 296 296 294 297 302 306 309 309 309 309 309 309 309 308 309 311 311 312 311 312 313 316 318 317 319 319
298 297 301 301 301 301 305 309 308 311 305 303 303 298 296 302 297 296 301 298 300 303 306 308 308 306 306 308 309 308 308 309 310 312 313 313 314 316 315 313 310 312 315 319